Cloud_Cover
10 5 28 6 27 100 100 99 100 100 100 100 100 100 90 88 100 36 98 91 86 42 81 97 96 97 100 100 95 27 23 27 5 0 0 0 0 0 0 0 0 0 1
100 97 81 69 92 100 100 98 100 100 100 100 97 97 98 70 100 72 81 100 100 100 100 79 75 97 91 99 66 88 0 0 0 0 0 0 0 0 0 0 0 1 5
96 100 100 100 100 100 80 100 100 100 100 100 99 100 97 40 100 87 90 100 100 100 100 100 100 100 100 100 75 0 0 0 0 3 1 0 0 0 0 0 1 2 5
100 100 100 100 99 100 89 98 100 90 94 86 100 100 91 99 100 100 100 100 100 100 100 100 99 100 100 23 0 0 0 0 3 5 5 4 5 2 5 5 25 5 2
100 100 100 100 100 88 100 69 100 99 79 98 95 100 100 100 100 100 100 100 98 95 99 100 100 55 14 5 0 0 0 5 5 5 5 5 5 5 97 94 14 4 5
100 100 100 100 100 100 100 100 100 100 100 100 100 100 100 69 100 100 100 96 39 99 100 83 15 7 0 1 5 5 5 5 5 5 64 20 7 99 84 5 5 5 61
100 100 100 100 49 100 100 100 100 100 100 100 100 100 100 100 100 100 100 100 100 100 100 76 7 16 33 5 5 5 0 0 0 4 5 78 100 97 54 5 5 28 92
100 100 100 100 100 100 100 100 100 100 100 100 100 100 100 100 100 100 100 100 100 100 100 34 75 7 5 5 5 2 0 0 0 3 83 23 18 45 89 98 80 97 48
100 100 100 100 100 100 100 100 100 100 100 100 100 100 100 100 100 100 100 100 100 100 24 43 3 5 5 5 5 5 4 0 0 3 0 5 5 11 85 100 100 88 78
100 100 100 100 100 100 100 100 100 100 100 100 100 100 100 100 100 100 100 100 73 98 93 3 5 5 5 5 5 5 7 1 2 2 0 3 5 5 23 69 97 98 100
100 100 100 100 100 100 100 100 99 100 100 100 100 100 100 100 100 100 100 83 84 75 5 5 5 5 5 5 5 5 4 2 3 5 5 4 5 5 5 28 81 100 100
100 84 78 93 99 100 100 100 100 100 100 100 100 100 100 100 100 100 99 86 5 5 5 5 5 10 36 5 5 5 5 5 5 5 5 5 5 5 5 5 19 18 88
83 96 97 99 100 100 100 100 100 100 100 100 100 100 100 100 47 82 100 100 84 80 5 5 5 5 5 5 5 5 5 5 5 41 8 5 5 5 5 56 55 28 71
97 97 98 77 72 87 91 57 83 56 25 7 23 56 41 11 6 98 98 82 94 65 81 10 5 8 5 5 5 64 73 38 5 34 5 5 5 5 5 6 67 35 20
5 4 0 0 0 0 0 0 0 5 5 5 5 41 42 23 34 84 93 100 100 96 94 70 66 79 17 8 44 97 92 54 33 5 5 5 5 5 5 5 47 73 54
0 0 0 0 0 0 0 0 5 5 5 5 5 5 9 58 98 100 97 90 87 96 100 84 93 90 54 86 100 100 100 94 90 32 5 5 16 23 5 5 5 62 88
0 0 0 0 0 0 1 5 5 5 5 5 5 5 5 5 83 100 100 100 100 100 88 66 80 31 73 98 100 100 100 100 100 83 38 5 45 6 18 7 5 16 84
4 4 13 22 14 16 32 78 18 64 55 5 5 5 5 5 82 100 86 100 100 100 80 59 70 69 52 66 83 98 100 100 100 100 75 26 64 55 63 14 6 46 47
5 5 5 10 86 100 100 99 96 93 100 46 5 6 8 86 17 100 100 100 93 100 100 100 96 60 33 14 77 81 100 100 100 100 95 62 70 69 22 52 58 23 32
5 6 29 14 6 8 7 87 100 98 100 98 87 47 5 90 71 97 100 100 100 100 100 100 100 100 80 68 72 99 100 100 97 90 100 86 88 53 13 51 69 69 9
5 5 5 5 47 76 92 84 49 100 90 100 96 27 5 97 99 95 100 100 100 100 100 100 100 91 86 74 100 70 95 100 100 92 99 66 71 5 5 56 66 73 64
72 14 5 5 5 27 26 56 100 100 100 76 30 6 5 70 100 100 100 100 100 100 100 100 100 100 84 59 89 100 68 60 69 80 14 49 31 37 28 69 52 6 12
5 10 74 100 97 93 82 39 86 100 100 78 93 74 76 98 100 100 100 100 100 100 100 100 100 100 100 100 87 77 80 98 84 100 94 36 66 24 55 63 10 5 5
100 100 100 100 99 100 100 99 92 61 98 99 97 94 68 100 100 100 100 100 100 100 100 100 100 100 100 100 100 100 96 98 99 100 100 75 98 95 63 6 6 5 5
99 100 99 100 100 100 100 100 100 100 100 100 100 100 72 93 100 100 100 100 100 100 100 100 100 100 100 100 100 100 99 100 100 99 100 96 98 98 84 65 5 5 5
63 100 73 100 100 100 100 100 100 100 100 100 100 92 100 100 100 100 100 100 100 100 100 100 100 100 100 100 100 100 100 100 100 100 100 99 100 92 84 80 85 51 9